Погода в Межгорье

Россия / Республика Башкортостан     54°14′23″N   57°57′40″E
темп.,
°C
ветер,
м/с
пор.,
м/с
влажн.,
%
обл.,
%
осадки,
мм/ч
давл.,
гПа
погр.,
м
13 мая, чт
чт1323:00+13вюв11550 0.0 102810
02:00+11вюв11630 0.0 102810
05:00+10вюв11680 0.0 102910
08:00+17св01495 0.0 1028162
11:00+23зюз11295 0.0 10271927
14:00+25зюз11265 0.0 10262603
17:00+24з222729 0.0 10252684
20:00+20с114558 0.0 102612
14 мая, пт
пт1423:00+15всв11604 0.0 102711
02:00+13вюв11664 0.0 102710
05:00+12вюв11680 0.0 102810
08:00+18юз11510 0.0 1028183
11:00+23юз23350 0.0 10271513
14:00+25зюз23275 0.0 10262527
17:00+24зсз33305 0.0 10252699
20:00+19зсз23563 0.0 102649
15 мая, сб
сб1523:00+14вюв11600 0.0 102711
02:00+13юв11575 0.0 102610
05:00+13юв11585 0.0 102711
08:00+19ююз124567 0.0 1026166
11:00+23зюз22342 0.0 10251199
14:00+25зсз33285 0.0 10242322
17:00+25зсз44305 0.0 10242293
20:00+19сз225434 0.0 102439
16 мая, вс
вс1623:00+15вюв116326 0.0 102411
02:00+14вюв11647 0.0 102410
05:00+14вюв11645 0.0 102411
08:00+20ююз11473 0.0 1024160
11:00+25зюз24312 0.0 10232143
14:00+26зюз452580 0.0 10213516
17:00+25зсз552657 0.0 10212882
20:00+20в115165 0.0 102111
17 мая, пн
пн1723:00+16ююз11582 0.0 102211
02:00+15ююв11600 0.0 102111
05:00+14ююв22604 0.0 102216
08:00+20ю234829 0.1 1022168
11:00+24з343254 0.1 10212820
14:00+25зсз443085 0.0 10202779
17:00+25зсз452936 0.0 10202634
20:00+20з11555 0.0 102020